Weather Roundup
Issued by NWS Springfield, MO

Home | Current Version | Previous Version | Text Only | Print | Product List | Glossary On
Versions: 1 2 3 4 5 6 7 8 9 10 11 12 13 14 15 16 17 18 19 20 21 22 23 24 25 26 27 28 29 30 31 32 33 34 35 36 37 38 39 40 41 42 43 44 45 46 47 48 49 50
000
NZUS99 KSGF 231207
HRRSGF

HOURLY WEATHER
NATIONAL WEATHER SERVICE SPRINGFIELD MO
700 AM CDT WED APR 23 2014

......SGF CWA......

CITY           SKY/WX    TMP DP  RH WIND       PRES   REMARKS
SPRINGFIELD    PTCLDY    51  35  54 SE8       30.02R
6HR MIN TEMP:  46; 6HR MAX TEMP:  54;

JOPLIN         MOCLDY    51  37  58 E6        29.98R
6HR MIN TEMP:  48; 6HR MAX TEMP:  53;

WEST PLAINS    CLEAR     48  31  51 E5        30.06R
6HR MIN TEMP:  44; 6HR MAX TEMP:  53;

ROLLA          CLEAR     45  33  63 E8        30.04S
6HR MIN TEMP:  42; 6HR MAX TEMP:  49;

OSAGE BEACH    PTCLDY    45  36  70 MISG        N/A
BRANSON        PTCLDY    50  36  57 SE10      30.03R

......SURROUNDING SGF CWA......

CITY           SKY/WX    TMP DP  RH WIND       PRES   REMARKS
CHANUTE        MOCLDY    54  37  52 SE9       29.96R
PARSONS        MOCLDY    53  38  56 E3        29.96S
COFFEYVILLE    MOCLDY    49  40  71 E7        29.95R
EMPORIA        CLOUDY    53  38  56 SE12      29.93R
GROVE OK       PTCLDY    48  43  81 CALM      29.98R
ROGERS AR      CLEAR     50  46  86 E12       29.99R
SILOAM SPRINGS CLEAR     48  36  61 E5        29.98R
HARRISON AR    CLEAR     49  38  65 SE8       30.04R
NEAR YELLVILLE CLEAR     43  34  70 CALM      30.05R

......KANSAS AND MISSOURI......

CITY           SKY/WX    TMP DP  RH WIND       PRES   REMARKS
KANSAS CTY INT LGT RAIN  54  35  48 SE10      30.00R
DOWNTOWN KC    CLOUDY    57  34  41 SE10G20   29.99F
COLUMBIA       PTCLDY    46  34  62 E7        30.06R
SEDALIA        CLOUDY    50  38  63 SE6       30.06R
ST JOSEPH      CLOUDY    55  35  47 SE10      29.99R
ST LOUIS       PTCLDY    48  35  60 E9        30.10R
SPIRIT OF STL  CLEAR     41  37  86 CALM      30.10R
KIRKSVILLE     CLOUDY    47  33  58 E9        30.08R
WICHITA        CLOUDY    57  37  47 SE15      29.87R
TOPEKA         CLOUDY    58  36  43 SE8       29.98R
OLATHE         CLOUDY    53  35  50 SE13      29.98F

......TENNESSEE......

CITY           SKY/WX    TMP DP  RH WIND       PRES   REMARKS
MEMPHIS        PTCLDY    53  41  63 CALM      30.04R
NASHVILLE      MOSUNNY   49  38  65 NE6       30.05R

......ARKANSAS.......

CITY           SKY/WX    TMP DP  RH WIND       PRES   REMARKS
FAYETTEVILLE   CLEAR     41  40  96 CALM      29.98R
FT SMITH       CLEAR     51  44  77 E8        29.98R
LITTLE ROCK    PTCLDY    53  45  74 NE3       30.03R

......OKLAHOMA.......

CITY           SKY/WX    TMP DP  RH WIND       PRES   REMARKS
TULSA          PTCLDY    54  42  64 SE6       29.92R
PONCA CITY     CLEAR     54  37  52 SE14      29.87S
MCALESTER      MOCLDY    55  43  63 E6        29.94R
OKLAHOMA CITY  PTCLDY    51  40  65 SE10      29.89R

......IOWA............

CITY           SKY/WX    TMP DP  RH WIND       PRES   REMARKS
DES MOINES     CLOUDY    50  31  48 SE10      30.06R
QUAD CITIES    MOCLDY    38  30  73 E6        30.16R WCI  33

......ILLINOIS........

CITY           SKY/WX    TMP DP  RH WIND       PRES   REMARKS
QUINCY         CLEAR     42  33  70 E10       30.11R
CHICAGO        MOSUNNY   36  27  69 NE6       30.16R WCI  31



USA.gov is the U.S. government's official web portal to all federal, state and local government web resources and services.